[[{"header":{"parameterUnit":"m.s-1","parameterCategory":2,"la1":30.2992,"la2":30.254,"lo1":-89.0895,"lo2":-89.0443,"dy":0.0025,"dx":0.0025,"nx":19,"ny":19,"refTime":"2026-03-21T21:00:00:Z","depth":"0","parameterNumber":2,"parameterNumberName":"U-component_of_CURRENTS"},"data":[0,0,0,-0.0035,-0.0036,-0.0157,-0.0158,-0.0184,-0.0184,0,0,0,0,0,0,0,0,0,0,0,-0.0011,-0.0011,-0.0035,-0.0036,-0.0157,-0.0158,-0.0185,-0.0184,0,0,0,0,0,0,0,0,0,0,0,-0.0011,-0.0011,-0.0011,-0.0036,-0.0157,-0.0158,-0.0185,-0.0138,0,0,0,0,0,0,0,0,0,0,-0.0043,-0.0018,-0.0011,-0.0011,-0.0037,-0.0156,-0.0158,-0.0138,-0.0141,-0.0076,0,-0.0074,0,-0.0092,-0.0177,-0.0177,0,0,0,-0.0091,-0.0016,-0.0034,-0.0011,-0.0037,-0.0156,-0.0118,-0.0141,-0.0144,-0.0079,-0.0075,-0.0076,-0.0093,-0.0177,-0.0176,-0.0122,-0.0122,0,0,-0.0084,-0.005,-0.0032,-0.0035,-0.0037,-0.0114,-0.0121,-0.0145,-0.0138,-0.0075,-0.0077,-0.0093,-0.0176,-0.0176,-0.0122,-0.0122,0,0,0,-0.0028,-0.0045,-0.0068,-0.0033,-0.0045,-0.0116,-0.0124,-0.014,-0.0142,-0.0078,-0.0093,-0.0176,-0.0175,-0.0122,-0.0122,-0.011,0,0,0,-0.0027,-0.0008,-0.0064,-0.0048,-0.0044,-0.0108,-0.0117,-0.0143,-0.0145,-0.0093,-0.0176,-0.0174,-0.0122,-0.0122,-0.011,-0.0122,0,0,0,-0.0011,-0.0007,-0.001,-0.0045,-0.007,-0.0109,-0.0118,-0.0146,-0.015,-0.0177,-0.0173,-0.0122,-0.0122,-0.011,-0.0122,-0.0141,0,0,0,0.0009,-0.0013,-0.0008,-0.0023,-0.0068,-0.0117,-0.0119,-0.0147,-0.0169,-0.0175,-0.0122,-0.0122,-0.011,-0.0121,-0.0141,-0.014,-0.0142,0,0,-0.0019,-0.0015,-0.0024,-0.0022,-0.0064,-0.0106,-0.0137,-0.015,-0.0151,-0.0113,-0.0114,-0.011,-0.0122,-0.0141,-0.0153,-0.0154,0,0,0,-0.0032,-0.0041,-0.0051,-0.0063,-0.0086,-0.0122,-0.0141,-0.0139,-0.0143,-0.0153,-0.0118,-0.0126,-0.0139,-0.0137,-0.0139,-0.0124,-0.0123,-0.0123,-0.0123,-0.0067,-0.0066,-0.0081,-0.0089,-0.0105,-0.0122,-0.0141,-0.0139,-0.0124,-0.0123,-0.0121,-0.0137,-0.0135,-0.0136,-0.012,-0.0118,-0.0118,-0.0118,-0.0118,-0.0093,-0.0079,-0.0083,-0.0097,-0.0102,-0.0117,-0.0124,-0.0121,-0.0127,-0.0122,-0.0134,-0.0131,-0.0137,-0.012,-0.0118,-0.0118,-0.0118,-0.0118,-0.0118,-0.0073,-0.0067,-0.0069,-0.0074,-0.009,-0.0109,-0.0117,-0.0125,-0.0132,-0.0135,-0.0155,-0.0155,-0.0138,-0.0148,-0.0148,-0.0148,-0.0149,-0.0149,-0.0149,-0.0036,-0.0042,-0.0039,-0.0057,-0.0064,-0.0088,-0.0124,-0.0139,-0.0165,-0.0161,-0.0161,-0.0144,-0.0147,-0.0143,-0.0151,-0.015,-0.015,-0.015,-0.015,-0.0012,-0.0001,-0.0002,-0.0006,-0.0033,-0.0049,-0.0097,-0.0149,-0.0177,-0.019,-0.0163,-0.0173,-0.0184,-0.0183,-0.018,-0.0197,-0.0197,-0.0197,-0.0197,0.0014,0.0015,0.0021,0.0018,0.0003,-0.0028,-0.005,-0.0095,-0.0147,-0.0156,-0.0174,-0.0151,-0.015,-0.0159,-0.0158,-0.0155,-0.0165,-0.0165,-0.0165,0.0016,0.0023,0.0022,0.0028,0.0018,-0.0003,-0.0011,-0.0027,-0.0109,-0.0162,-0.0154,-0.0156,-0.012,-0.0119,-0.0129,-0.0129,-0.0123,0,0]},{"header":{"parameterUnit":"m.s-1","parameterCategory":2,"la1":30.2992,"la2":30.254,"lo1":-89.0895,"lo2":-89.0443,"dy":0.0025,"dx":0.0025,"nx":19,"ny":19,"refTime":"2026-03-21T21:00:00:Z","depth":"0","parameterNumber":3,"parameterNumberName":"V-component_of_CURRENTS"},"data":[0,0,0,-0.0538,-0.0536,-0.0493,-0.0493,-0.0448,-0.0448,0,0,0,0,0,0,0,0,0,0,0,-0.0586,-0.0586,-0.0538,-0.0536,-0.0493,-0.0493,-0.0448,-0.0448,0,0,0,0,0,0,0,0,0,0,0,-0.0586,-0.0586,-0.0586,-0.0536,-0.0493,-0.0493,-0.0448,-0.0483,0,0,0,0,0,0,0,0,0,0,-0.0526,-0.0548,-0.0586,-0.0586,-0.0535,-0.0493,-0.0493,-0.0485,-0.0481,-0.0465,0,-0.0469,0,-0.0433,-0.0443,-0.0443,0,0,0,-0.0556,-0.0552,-0.0544,-0.0586,-0.0535,-0.0493,-0.0518,-0.0483,-0.0478,-0.0459,-0.0468,-0.0465,-0.0432,-0.0443,-0.0442,-0.0406,-0.0407,0,0,-0.0558,-0.057,-0.0547,-0.0541,-0.0537,-0.0519,-0.0516,-0.048,-0.0479,-0.0467,-0.0463,-0.0432,-0.0442,-0.0442,-0.0406,-0.0406,0,0,0,-0.0552,-0.0572,-0.0566,-0.0544,-0.0522,-0.0518,-0.0514,-0.0481,-0.0481,-0.0462,-0.0431,-0.0442,-0.0441,-0.0406,-0.0406,-0.044,0,0,0,-0.0554,-0.0566,-0.0567,-0.0572,-0.0523,-0.0493,-0.0516,-0.0485,-0.0478,-0.0431,-0.0442,-0.044,-0.0406,-0.0406,-0.0439,-0.044,0,0,0,-0.0585,-0.0568,-0.057,-0.0573,-0.0542,-0.0493,-0.0491,-0.0483,-0.0457,-0.0443,-0.044,-0.0406,-0.0406,-0.0438,-0.0438,-0.0433,0,0,0,-0.0591,-0.059,-0.057,-0.0565,-0.0542,-0.0519,-0.0491,-0.0464,-0.0453,-0.0441,-0.0406,-0.0406,-0.0437,-0.0437,-0.0433,-0.0497,-0.0505,0,0,-0.0591,-0.0591,-0.059,-0.0569,-0.0546,-0.0525,-0.0512,-0.048,-0.0453,-0.0422,-0.0421,-0.0439,-0.0438,-0.0433,-0.0513,-0.0521,0,0,0,-0.059,-0.0589,-0.058,-0.0564,-0.0543,-0.053,-0.0495,-0.0481,-0.0458,-0.0442,-0.0436,-0.0433,-0.0429,-0.0467,-0.0473,-0.0359,-0.0408,-0.0408,-0.0408,-0.0604,-0.0595,-0.0587,-0.0573,-0.0562,-0.0529,-0.0524,-0.0499,-0.0472,-0.0466,-0.0459,-0.0474,-0.0516,-0.052,-0.0403,-0.0464,-0.0464,-0.0464,-0.0464,-0.0607,-0.0606,-0.0598,-0.0581,-0.0573,-0.0564,-0.0545,-0.0529,-0.0499,-0.0482,-0.0477,-0.0498,-0.0529,-0.0401,-0.0466,-0.0466,-0.0466,-0.0465,-0.0465,-0.0628,-0.062,-0.0611,-0.0593,-0.0591,-0.0578,-0.0578,-0.0555,-0.0522,-0.0516,-0.0535,-0.0535,-0.0422,-0.0509,-0.0509,-0.0509,-0.0509,-0.0509,-0.0509,-0.0641,-0.0631,-0.0618,-0.0601,-0.0595,-0.0597,-0.0585,-0.0578,-0.0574,-0.0564,-0.0564,-0.0417,-0.0487,-0.0484,-0.0509,-0.0509,-0.0509,-0.0509,-0.0509,-0.0631,-0.0631,-0.0615,-0.0605,-0.0595,-0.0606,-0.0616,-0.0642,-0.0624,-0.0639,-0.0489,-0.0589,-0.0577,-0.0573,-0.0572,-0.0617,-0.0617,-0.0618,-0.0618,-0.0619,-0.0621,-0.0596,-0.0591,-0.0593,-0.0607,-0.0643,-0.0692,-0.0623,-0.056,-0.0466,-0.0463,-0.0464,-0.0442,-0.0441,-0.0436,-0.0445,-0.0445,-0.0444,-0.0585,-0.0595,-0.0573,-0.058,-0.0584,-0.0609,-0.064,-0.0703,-0.0594,-0.042,-0.029,-0.0297,-0.0273,-0.0283,-0.0236,-0.0243,-0.023,0,0]}],[{"header":{"parameterUnit":"m.s-1","parameterCategory":2,"la1":30.2992,"la2":30.254,"lo1":-89.0895,"lo2":-89.0443,"dy":0.0025,"dx":0.0025,"nx":19,"ny":19,"refTime":"2026-03-21T21:00:00:Z","depth":"2","parameterNumber":2,"parameterNumberName":"U-component_of_CURRENTS"},"data":[0,0,0,-0.2184,-0.2183,-0.2104,-0.2103,-0.2007,-0.2006,0,0,0,0,0,0,0,0,0,0,0,-0.2193,-0.2192,-0.2184,-0.2183,-0.2104,-0.2103,-0.2007,-0.2006,0,0,0,0,0,0,0,0,0,0,0,-0.2193,-0.2193,-0.2192,-0.2182,-0.2104,-0.2103,-0.2007,-0.2063,0,0,0,0,0,0,0,0,0,0,-0.2137,-0.2132,-0.2193,-0.2192,-0.2182,-0.2104,-0.2103,-0.2065,-0.2059,-0.2048,0,-0.2028,0,-0.2028,-0.2001,-0.2001,0,0,0,-0.217,-0.2136,-0.2138,-0.2191,-0.2181,-0.2104,-0.2136,-0.2062,-0.2055,-0.204,-0.2026,-0.2023,-0.2026,-0.2001,-0.2,-0.1937,-0.1937,0,0,-0.2174,-0.2158,-0.2143,-0.2134,-0.215,-0.2138,-0.2133,-0.2057,-0.2032,-0.2026,-0.2021,-0.2025,-0.2,-0.1999,-0.1937,-0.1937,0,0,0,-0.2195,-0.216,-0.2163,-0.2137,-0.213,-0.2136,-0.2131,-0.2035,-0.2042,-0.202,-0.2024,-0.2,-0.1999,-0.1937,-0.1937,-0.19,0,0,0,-0.2197,-0.2174,-0.2165,-0.2151,-0.2131,-0.2077,-0.2109,-0.2046,-0.2039,-0.2024,-0.2,-0.1998,-0.1938,-0.1937,-0.1901,-0.1866,0,0,0,-0.2199,-0.2174,-0.2167,-0.2151,-0.2128,-0.2079,-0.2079,-0.2044,-0.2042,-0.2001,-0.1998,-0.1938,-0.1937,-0.1902,-0.1869,-0.1869,0,0,0,-0.2183,-0.2131,-0.2166,-0.2108,-0.2129,-0.209,-0.208,-0.203,-0.1992,-0.1999,-0.1937,-0.1937,-0.1903,-0.1871,-0.187,-0.1781,-0.1768,0,0,-0.2111,-0.2121,-0.2092,-0.2123,-0.2077,-0.2101,-0.205,-0.1995,-0.1988,-0.1961,-0.1959,-0.1901,-0.1869,-0.1869,-0.1766,-0.1753,0,0,0,-0.2066,-0.204,-0.2033,-0.2013,-0.2018,-0.2009,-0.1987,-0.1986,-0.1943,-0.1968,-0.1906,-0.1887,-0.1888,-0.1838,-0.1827,-0.1936,-0.1936,-0.1936,-0.1936,-0.1921,-0.1952,-0.1899,-0.1929,-0.1918,-0.1938,-0.193,-0.1928,-0.1922,-0.1906,-0.1861,-0.1838,-0.1783,-0.1775,-0.1877,-0.1877,-0.1877,-0.1877,-0.1876,-0.1804,-0.176,-0.1812,-0.177,-0.1809,-0.1778,-0.1833,-0.1847,-0.1842,-0.1844,-0.1848,-0.1805,-0.1761,-0.1874,-0.1874,-0.1875,-0.1875,-0.1875,-0.1875,-0.1682,-0.1665,-0.1661,-0.1634,-0.1614,-0.1658,-0.166,-0.1714,-0.1771,-0.1779,-0.1728,-0.1728,-0.1813,-0.1773,-0.1772,-0.1772,-0.1772,-0.1772,-0.1772,-0.1542,-0.1549,-0.1497,-0.149,-0.1461,-0.1456,-0.154,-0.1583,-0.1631,-0.1667,-0.1667,-0.1803,-0.1807,-0.1807,-0.177,-0.177,-0.177,-0.1771,-0.1771,-0.1358,-0.1382,-0.1311,-0.1282,-0.1262,-0.1239,-0.1364,-0.1442,-0.1505,-0.1519,-0.1625,-0.163,-0.1634,-0.1641,-0.1638,-0.1559,-0.1559,-0.1559,-0.1559,-0.1223,-0.1241,-0.1145,-0.1102,-0.1081,-0.1132,-0.1169,-0.1291,-0.1408,-0.1455,-0.146,-0.1461,-0.1471,-0.1468,-0.1479,-0.1474,-0.1352,-0.1352,-0.1352,-0.1096,-0.1102,-0.0998,-0.1,-0.0986,-0.1016,-0.1049,-0.12,-0.1342,-0.1348,-0.1472,-0.1536,-0.155,-0.1561,-0.1569,-0.1583,-0.158,0,0]},{"header":{"parameterUnit":"m.s-1","parameterCategory":2,"la1":30.2992,"la2":30.254,"lo1":-89.0895,"lo2":-89.0443,"dy":0.0025,"dx":0.0025,"nx":19,"ny":19,"refTime":"2026-03-21T21:00:00:Z","depth":"2","parameterNumber":3,"parameterNumberName":"V-component_of_CURRENTS"},"data":[0,0,0,0.0339,0.0338,0.0292,0.0291,0.0296,0.0296,0,0,0,0,0,0,0,0,0,0,0,0.0348,0.0347,0.0339,0.0338,0.0292,0.0291,0.0295,0.0296,0,0,0,0,0,0,0,0,0,0,0,0.0348,0.0347,0.0347,0.0338,0.0292,0.0291,0.0295,0.0314,0,0,0,0,0,0,0,0,0,0,0.0351,0.0349,0.0347,0.0347,0.0338,0.0292,0.0291,0.0314,0.0313,0.0336,0,0.0321,0,0.0314,0.0298,0.0298,0,0,0,0.0335,0.035,0.0341,0.0347,0.0337,0.0292,0.0312,0.0313,0.0312,0.0334,0.0321,0.0321,0.0315,0.0298,0.0298,0.0319,0.0319,0,0,0.0338,0.0339,0.0342,0.034,0.0317,0.0313,0.031,0.0311,0.0307,0.0321,0.0321,0.0315,0.0298,0.0298,0.0319,0.0319,0,0,0,0.0347,0.0341,0.033,0.034,0.033,0.0312,0.0309,0.0306,0.0303,0.0321,0.0315,0.0298,0.0299,0.0319,0.0319,0.025,0,0,0,0.0349,0.0347,0.0331,0.0332,0.0329,0.0309,0.0303,0.0302,0.0302,0.0315,0.0298,0.0299,0.0319,0.0319,0.0252,0.0234,0,0,0,0.0351,0.0347,0.0339,0.0332,0.0314,0.0308,0.0304,0.0302,0.03,0.0298,0.0299,0.0319,0.0319,0.0254,0.0237,0.0234,0,0,0,0.0358,0.0338,0.0339,0.0313,0.0314,0.0295,0.0304,0.0279,0.0272,0.0298,0.0319,0.0319,0.0254,0.0238,0.0235,0.0238,0.0232,0,0,0.0338,0.0335,0.032,0.032,0.0289,0.0302,0.0282,0.0268,0.0286,0.0323,0.0323,0.0252,0.0237,0.0234,0.024,0.0233,0,0,0,0.0318,0.0299,0.0292,0.027,0.0268,0.0254,0.0257,0.0269,0.0263,0.0283,0.0272,0.0265,0.0265,0.0271,0.0266,0.0319,0.0319,0.0319,0.0319,0.0285,0.0277,0.0241,0.0226,0.0219,0.0223,0.0221,0.0242,0.0254,0.0242,0.0223,0.0195,0.02,0.0196,0.0234,0.0234,0.0234,0.0233,0.0233,0.0232,0.0198,0.0192,0.015,0.0152,0.0139,0.0174,0.0177,0.0193,0.0203,0.0205,0.0215,0.0186,0.0228,0.0229,0.023,0.023,0.0231,0.0231,0.0189,0.0171,0.0142,0.009,0.0057,0.0063,0.005,0.0081,0.0127,0.0123,0.0141,0.0142,0.0156,0.0107,0.0107,0.0107,0.0107,0.0107,0.0107,0.0149,0.0125,0.0075,0.0026,-0.0014,-0.0049,-0.0032,-0.0007,0.0042,0.0084,0.0084,0.0153,0.0157,0.0151,0.0105,0.0106,0.0106,0.0106,0.0106,0.0078,0.0079,0.0008,-0.0037,-0.0113,-0.0155,-0.0122,-0.0059,-0.0021,0.0022,0.0083,0.0084,0.0115,0.012,0.0114,0.0062,0.0062,0.0062,0.0062,0.0039,0.0034,-0.0056,-0.0122,-0.0183,-0.0205,-0.0185,-0.0019,0.0106,0.0227,0.0221,0.0251,0.0248,0.029,0.0291,0.0291,0.0285,0.0285,0.0286,-0.0009,-0.0026,-0.0097,-0.0151,-0.0223,-0.0256,-0.0214,0.0129,0.0472,0.0303,0.0342,0.0061,0.0087,0.0089,0.0141,0.0147,0.0142,0,0]}],[{"header":{"parameterUnit":"m.s-1","parameterCategory":2,"la1":30.2992,"la2":30.254,"lo1":-89.0895,"lo2":-89.0443,"dy":0.0025,"dx":0.0025,"nx":19,"ny":19,"refTime":"2026-03-21T21:00:00:Z","depth":"4","parameterNumber":2,"parameterNumberName":"U-component_of_CURRENTS"},"data":[0,0,0,-0.1081,-0.1083,-0.1178,-0.1179,-0.1303,-0.1304,0,0,0,0,0,0,0,0,0,0,0,-0.1049,-0.105,-0.1081,-0.1084,-0.1178,-0.1179,-0.1303,-0.1304,0,0,0,0,0,0,0,0,0,0,0,-0.1049,-0.1049,-0.105,-0.1084,-0.1178,-0.1179,-0.1303,-0.1231,0,0,0,0,0,0,0,0,0,0,-0.1139,-0.1113,-0.1049,-0.105,-0.1084,-0.1178,-0.1179,-0.1228,-0.1236,-0.126,0,-0.1276,0,-0.1293,-0.1313,-0.1313,0,0,0,-0.1086,-0.1107,-0.1126,-0.105,-0.1085,-0.1178,-0.1136,-0.1232,-0.1241,-0.1271,-0.1278,-0.1283,-0.1295,-0.1313,-0.1314,-0.1461,-0.1461,0,0,-0.1081,-0.1074,-0.112,-0.1132,-0.1112,-0.1133,-0.1139,-0.1238,-0.1252,-0.1279,-0.1286,-0.1297,-0.1314,-0.1315,-0.146,-0.1461,0,0,0,-0.1064,-0.107,-0.1087,-0.1127,-0.1144,-0.1136,-0.1143,-0.1247,-0.1252,-0.1287,-0.1298,-0.1315,-0.1316,-0.1459,-0.146,-0.1455,0,0,0,-0.1061,-0.106,-0.1085,-0.1082,-0.1142,-0.1198,-0.1151,-0.1245,-0.1256,-0.1298,-0.1315,-0.1318,-0.1459,-0.146,-0.1453,-0.144,0,0,0,-0.1044,-0.1058,-0.1068,-0.1082,-0.1121,-0.1197,-0.1207,-0.1248,-0.1263,-0.1313,-0.1318,-0.1458,-0.146,-0.1452,-0.1438,-0.1411,0,0,0,-0.1034,-0.1042,-0.1068,-0.1086,-0.112,-0.1179,-0.1207,-0.1273,-0.1318,-0.1316,-0.1459,-0.146,-0.1451,-0.1437,-0.1411,-0.1205,0,0,0,-0.1031,-0.1042,-0.105,-0.1076,-0.1108,-0.1166,-0.1223,-0.1299,-0.1352,-0.1425,-0.1429,-0.1454,-0.1438,-0.1411,-0.1307,0,0,0,0,-0.104,-0.1044,-0.106,-0.109,-0.1141,-0.1199,-0.1275,-0.1318,-0.1415,-0.1386,-0.1489,-0.148,-0.1462,-0.1345,-0.1468,-0.1468,-0.1468,-0.1468,-0.1468,-0.1013,-0.1037,-0.1056,-0.1094,-0.1137,-0.1239,-0.129,-0.1372,-0.1425,-0.1479,-0.1502,-0.1515,-0.1396,-0.154,-0.154,-0.154,-0.154,-0.154,-0.154,-0.0992,-0.0992,-0.1045,-0.1073,-0.1145,-0.1211,-0.1323,-0.1382,-0.1469,-0.1519,-0.1502,-0.1382,-0.154,-0.154,-0.154,-0.154,-0.154,-0.154,-0.154,-0.0956,-0.0956,-0.0998,-0.104,-0.1119,-0.1216,-0.1267,-0.1386,-0.1463,-0.1483,-0.1363,-0.1504,-0.1471,-0.1493,-0.1493,-0.1492,-0.1492,-0.1492,-0.1492,-0.0889,-0.0927,-0.0937,-0.1009,-0.1039,-0.1128,-0.1259,-0.1262,-0.1358,-0.1332,-0.1497,-0.1498,-0.15,-0.1469,-0.149,-0.149,-0.149,-0.1491,-0.1491,-0.0819,-0.0851,-0.0839,-0.0865,-0.0921,-0.0986,-0.1121,-0.1107,-0.1097,-0.1063,-0.123,-0.1243,-0.1215,-0.1224,-0.1182,-0.1118,-0.1115,-0.1112,0,-0.0767,-0.0784,-0.0741,-0.0728,-0.0738,-0.088,-0.0839,-0.0873,-0.0948,-0.0958,-0.1094,-0.1285,-0.1294,-0.1266,-0.1269,-0.122,0,0,0,-0.0729,-0.0718,-0.0663,-0.0648,-0.0645,-0.0713,-0.0828,-0.0798,-0.0986,-0.0851,-0.1046,-0.1064,-0.122,-0.1483,-0.1472,-0.1474,-0.1424,0,0]},{"header":{"parameterUnit":"m.s-1","parameterCategory":2,"la1":30.2992,"la2":30.254,"lo1":-89.0895,"lo2":-89.0443,"dy":0.0025,"dx":0.0025,"nx":19,"ny":19,"refTime":"2026-03-21T21:00:00:Z","depth":"4","parameterNumber":3,"parameterNumberName":"V-component_of_CURRENTS"},"data":[0,0,0,-0.0168,-0.0169,-0.018,-0.018,-0.02,-0.0201,0,0,0,0,0,0,0,0,0,0,0,-0.0164,-0.0164,-0.0168,-0.0169,-0.018,-0.018,-0.02,-0.0201,0,0,0,0,0,0,0,0,0,0,0,-0.0164,-0.0164,-0.0164,-0.0169,-0.018,-0.018,-0.02,-0.019,0,0,0,0,0,0,0,0,0,0,-0.0178,-0.0176,-0.0164,-0.0164,-0.0169,-0.018,-0.018,-0.0189,-0.0191,-0.0197,0,-0.02,0,-0.0202,-0.0202,-0.0202,0,0,0,-0.0167,-0.0175,-0.0176,-0.0164,-0.0169,-0.018,-0.0175,-0.019,-0.0191,-0.0199,-0.02,-0.0201,-0.0203,-0.0202,-0.0203,-0.0288,-0.0289,0,0,-0.0167,-0.0168,-0.0175,-0.0177,-0.0174,-0.0174,-0.0175,-0.0191,-0.0194,-0.0201,-0.0202,-0.0203,-0.0203,-0.0203,-0.0287,-0.0288,0,0,0,-0.0166,-0.0168,-0.0168,-0.0176,-0.0179,-0.0175,-0.0175,-0.0194,-0.0193,-0.0202,-0.0203,-0.0203,-0.0203,-0.0287,-0.0288,-0.0318,0,0,0,-0.0165,-0.0167,-0.0168,-0.0169,-0.0178,-0.0186,-0.0178,-0.0192,-0.0194,-0.0203,-0.0203,-0.0203,-0.0286,-0.0287,-0.0316,-0.036,0,0,0,-0.0163,-0.0167,-0.0168,-0.0169,-0.0175,-0.0186,-0.0187,-0.0192,-0.0195,-0.0202,-0.0203,-0.0285,-0.0287,-0.0313,-0.0355,-0.0301,0,0,0,-0.0164,-0.0187,-0.0168,-0.0205,-0.0175,-0.0222,-0.0187,-0.0217,-0.0229,-0.0203,-0.0286,-0.0288,-0.0312,-0.0352,-0.0299,-0.0179,0,0,0,-0.0197,-0.019,-0.0216,-0.0201,-0.0262,-0.022,-0.0281,-0.0274,-0.0259,-0.0278,-0.028,-0.0316,-0.0355,-0.03,-0.0288,0,0,0,0,-0.0231,-0.0245,-0.0263,-0.0292,-0.0313,-0.0338,-0.0323,-0.0317,-0.0328,-0.0274,-0.0345,-0.037,-0.0332,-0.0261,-0.0296,-0.0296,-0.0296,-0.0296,-0.0296,-0.0264,-0.0289,-0.0342,-0.0373,-0.0404,-0.042,-0.0431,-0.0422,-0.0388,-0.0402,-0.0413,-0.0429,-0.0359,-0.0419,-0.0419,-0.042,-0.042,-0.042,-0.042,-0.0319,-0.0357,-0.0393,-0.0451,-0.0486,-0.0527,-0.0538,-0.0511,-0.0493,-0.0483,-0.0442,-0.0326,-0.0424,-0.0423,-0.0422,-0.0422,-0.0422,-0.0421,-0.0421,-0.034,-0.0366,-0.0399,-0.0485,-0.0552,-0.0587,-0.0602,-0.0602,-0.0541,-0.0527,-0.0376,-0.044,-0.041,-0.0466,-0.0466,-0.0466,-0.0466,-0.0466,-0.0466,-0.035,-0.0388,-0.0444,-0.0522,-0.0576,-0.0624,-0.0638,-0.0588,-0.0535,-0.0427,-0.0518,-0.0443,-0.0442,-0.0413,-0.0466,-0.0466,-0.0466,-0.0466,-0.0466,-0.0383,-0.0397,-0.047,-0.0527,-0.0629,-0.0648,-0.0655,-0.0491,-0.0409,-0.0294,-0.0338,-0.0344,-0.031,-0.0312,-0.0276,-0.0291,-0.0289,-0.0288,0,-0.0399,-0.0414,-0.0501,-0.0581,-0.0639,-0.0669,-0.0518,-0.0428,-0.0335,-0.0337,-0.0435,-0.0498,-0.0497,-0.0473,-0.0471,-0.0438,0,0,0,-0.042,-0.0438,-0.0496,-0.0577,-0.0654,-0.0535,-0.0476,-0.0396,-0.0358,-0.0194,-0.0253,-0.0262,-0.0382,-0.0465,-0.0428,-0.0426,-0.0376,0,0]}]]